Regional Weather Roundup
Issued by NWS Memphis, TN

Home | Current Version | Previous Version | Text Only | Print | Product List | Glossary On
Versions: 1 2 3 4 5 6 7 8 9 10 11 12 13 14 15 16 17 18 19 20 21 22 23 24 25 26 27 28 29 30 31 32 33 34 35 36 37 38 39 40 41 42 43 44 45 46 47 48 49 50
000
ASUS44 KMEG 271010
RWRMEG
MEMPHIS CWA HOURLY WEATHER ROUNDUP
NATIONAL WEATHER SERVICE MEMPHIS TN
500 AM CDT WED MAY 27 2015

...WEST TENNESSEE...

CITY           SKY/WX    TMP DP  RH WIND       PRES   REMARKS
MEMPHIS INTL   MOCLDY    72  67  84 S9        30.07S
NWS MEMPHIS      N/A     71 N/A N/A MISG        N/A
JACKSON        MOCLDY    65  63  93 CALM      30.09R
LEXINGTON      PTCLDY    66  66 100 S3        30.10S
DYERSBURG      MOCLDY    64  52  63 CALM      30.08S
PARIS          CLEAR     63  63 100 S3        30.09F


...EASTERN ARKANSAS...

CITY           SKY/WX    TMP DP  RH WIND       PRES   REMARKS
JONESBORO      PTCLDY    63  63 100 CALM      30.05R
WEST MEMPHIS   PTCLDY    71  70  96 S8        30.04S
BATESVILLE     MOCLDY    68  64  88 SW5       30.05R
NEWPORT        PTCLDY    67  67 100 CALM      30.06R
WALNUT RIDGE   MOCLDY    64  63  94 SE5       30.04S
BLYTHEVILLE    MOCLDY    67  66  97 SE5       30.06R
SEARCY         MOCLDY    65  64  97 CALM      30.07R FOG
STUTTGART      MOCLDY    72  66  83 S9        30.06R
PINE BLUFF     CLOUDY    70  68  93 S5        30.05S
MONTICELLO     MOCLDY    69  67  93 S6        30.06F


...NORTH MISSISSIPPI...

CITY           SKY/WX    TMP DP  RH WIND       PRES   REMARKS
TUPELO         PTCLDY    69  67  93 S3        30.12S
OXFORD         PTCLDY    66  64  94 S7        30.12S
OLIVE BRANCH   CLEAR     68 N/A N/A S8        30.08R
TUNICA         PTCLDY    72  68  88 S7        30.08R
CLARKSDALE       N/A     72  72 100 CALM      30.08S
CORINTH        CLOUDY    68  66  94 SE6       30.10S
GREENWOOD      LGT RAIN  71  68  90 CALM      30.10F
COLUMBUS       CLOUDY    72 N/A N/A S6        30.13S
STARKVILLE     FAIR      68  66  94 S3        30.13S
GOLDEN TRIANGL CLOUDY    72  68  88 S7        30.13S


...SOUTHEAST MISSOURI...

CITY           SKY/WX    TMP DP  RH WIND       PRES   REMARKS
WEST PLAINS    CLOUDY    66  63  90 SE6       30.04R
POPLAR BLUFF   PTCLDY    64  62  93 CALM      30.03F
CAPE GIRARDEAU PTCLDY    65  63  93 CALM      30.04R


...NORTHWEST ALABAMA...

CITY           SKY/WX    TMP DP  RH WIND       PRES   REMARKS
MUSCLE SHOALS  CLOUDY    70  67  90 SE5       30.15S


...MIDDLE TENNESSEE...

CITY           SKY/WX    TMP DP  RH WIND       PRES   REMARKS
NASHVILLE      CLOUDY    70  68  93 S6        30.13S
CLARKSVILLE    CLEAR     64  63  96 S5        30.10R FOG
COLUMBIA       MOCLDY    70  68  94 S5        30.12S


...WESTERN KENTUCKY...

CITY           SKY/WX    TMP DP  RH WIND       PRES   REMARKS
PADUCAH        CLEAR     64  62  93 S3        30.06R
FORT CAMPBELL  CLEAR     66  65  96 S5        30.10R


...CENTRAL ARKANSAS...

CITY           SKY/WX    TMP DP  RH WIND       PRES   REMARKS
LITTLE ROCK    CLOUDY    68  62  81 S5        30.06R


SKY/WX REPORTED AS FAIR MEANS FEW OR NO CLOUDS BELOW
12 THOUSAND FEET.



USA.gov is the U.S. government's official web portal to all federal, state and local government web resources and services.